MDT,Max TemperatureF,Mean TemperatureF,Min TemperatureF,Max Dew PointF,MeanDew PointF,Min DewpointF,Max Humidity, Mean Humidity, Min Humidity, Max Sea Level PressureIn, Mean Sea Level PressureIn, Min Sea Level PressureIn, Max VisibilityMiles, Mean VisibilityMiles, Min VisibilityMiles, Max Wind SpeedMPH, Mean Wind SpeedMPH, Max Gust SpeedMPH,PrecipitationIn, CloudCover, Events, WindDirDegrees
2013-5-1,39,34,28,36,32,27,100,93,87,30.59,30.27,30.04,10,5,0,20,9,16,0.00,8,Snow,7
2013-5-2,46,34,23,28,26,21,100,85,37,30.66,30.57,30.41,10,8,3,12,7,,0.00,4,Snow,244
2013-5-3,60,46,32,32,27,21,87,69,25,30.41,30.27,30.12,10,10,10,12,7,16,0.00,0,,177
2013-5-4,57,47,37,32,31,27,81,67,31,30.24,30.15,30.10,20,10,10,14,8,21,0.00,2,,158
2013-5-5,60,46,32,34,29,21,87,61,23,30.24,30.17,30.10,20,10,10,15,7,,0.00,3,,163
2013-5-6,66,54,41,41,32,27,81,53,30,30.12,30.02,29.93,20,10,10,13,9,17,0.00,1,,196
2013-5-7,69,56,42,48,41,36,94,69,28,30.05,29.97,29.92,10,10,2,28,8,18,0.00,4,Rain-Thunderstorm,262
2013-5-8,62,53,44,50,44,41,93,81,55,30.07,30.01,29.98,10,10,10,24,8,33,0.00,3,Rain-Thunderstorm,229
2013-5-9,59,54,44,48,44,41,94,77,59,30.23,30.20,30.16,10,10,5,13,7,18,0.00,5,,275
2013-5-10,66,54,42,45,40,36,87,71,35,30.32,30.24,30.20,10,10,10,15,9,21,0.00,3,,244
2013-5-11,68,55,42,45,42,37,93,75,33,30.45,30.36,30.26,10,10,10,13,6,,0.00,3,,218
2013-5-12,73,60,46,46,41,36,81,60,25,30.26,30.22,30.16,10,10,10,15,11,,0.00,1,,229
2013-5-13,82,70,59,50,39,36,63,42,19,30.22,30.16,30.09,10,10,10,15,11,17,0.00,1,,216
2013-5-14,86,73,60,48,40,37,45,39,18,30.08,30.04,29.97,10,10,10,26,13,34,0.00,1,Rain-Thunderstorm,217
2013-5-15,80,68,55,54,46,41,94,56,26,30.05,29.99,29.93,10,10,10,38,11,22,0.00,3,Rain-Thunderstorm,185
2013-5-16,80,66,51,52,47,37,88,65,23,29.99,29.93,29.85,10,10,10,17,7,26,0.00,2,,181
2013-5-17,86,70,53,50,39,21,82,49,13,29.94,29.89,29.78,10,10,10,16,10,24,0.00,1,,204
2013-5-18,75,63,51,45,32,21,71,38,20,29.95,29.89,29.86,10,10,10,15,8,,0.00,2,Rain-Thunderstorm,229
2013-5-19,68,57,46,43,40,32,81,65,28,29.89,29.86,29.79,10,10,10,9,5,,0.00,5,Thunderstorm,203
2013-5-20,62,53,44,48,42,39,93,75,42,30.06,29.95,29.89,10,10,10,25,5,37,0.00,5,Rain,16
2013-5-21,69,56,44,41,35,30,76,55,24,30.08,30.02,29.92,10,10,10,14,5,23,0.00,5,,8
2013-5-22,77,59,41,50,39,32,88,61,19,30.13,30.00,29.91,10,10,10,26,7,33,0.00,3,Rain-Thunderstorm,120
2013-5-23,68,57,46,50,47,45,100,79,49,30.15,30.10,30.02,20,12,10,31,13,40,0.00,3,,128
2013-5-24,86,70,55,55,47,21,88,60,9,30.05,30.00,29.92,10,10,10,21,12,29,0.00,3,,207
2013-5-25,86,70,55,57,49,32,94,69,14,30.05,29.99,29.90,20,10,7,14,8,25,0.00,1,,202
2013-5-26,84,70,55,46,39,25,67,43,12,29.98,29.94,29.91,10,10,10,13,9,17,0.00,2,Thunderstorm,244
2013-5-27,84,70,55,57,44,23,82,55,12,29.92,29.87,29.79,10,10,7,18,8,25,0.00,2,Rain-Thunderstorm,188
2013-5-28,84,65,46,50,42,32,87,54,15,29.87,29.76,29.60,10,10,10,23,8,33,0.00,1,Thunderstorm,172
2013-5-29,64,56,48,50,43,32,88,63,41,29.76,29.71,29.64,20,11,10,24,13,33,0.00,5,Rain-Thunderstorm,11
2013-5-30,71,58,44,34,30,19,66,39,14,29.92,29.77,29.70,10,10,10,32,11,41,0.00,2,,255
2013-5-31,73,62,48,32,22,12,54,28,10,30.08,29.94,29.88,10,10,10,25,14,38,0.00,1,,273